Home   Weather   Ghazni   Past weeks

Flag for Afghanistan Past Weather in Ghazni, Afghanistan — Yesterday and Last 2 Weeks

Now
63 °F

Passing clouds.


Feels Like: 63 °F
Forecast: 27 / 51 °F
Wind: No wind

Location: Peshawar Airport

Current Time: Dec 8, 2016 at 6:52:20 pm

Latest Report: Dec 8, 2016 at 6:30 pm


Visibility: 100 mi

Pressure: 29.98 "Hg (23.18 "Hg at 2184m altitude)

Humidity: 49%

Dew Point: 43 °F

Location of GhazniLocation

Past Weather in Ghazni — Graph

°F

Ghazni Temperature Yesterday

Maximum temperature yesterday: 77 °F (at 2:30 pm)
Minimum temperature yesterday: 50 °F (at 5:30 am)
Average temperature yesterday: 63 °F

High & Low Weather Summary for the Past Weeks

 TemperatureHumidityPressure
High81 °F (Nov 27, 1:30 pm)77% (Nov 24, 1:30 am)30.18 "Hg (Nov 24, 1:30 am)
Low48 °F (Nov 28, 5:30 am)24% (Nov 30, 1:30 pm)29.92 "Hg (Nov 28, 2:30 pm)
Average63 °F49%30.06 "Hg
* Reported Nov 23 5:30 pm — Dec 8 5:30 pm, Ghazni, Weather by CustomWeather, © 2016

Note: Actual official high and low records may vary slightly from our data, if they occured in-between our weather recording intervals... More about our weather records

Advertising

Ghazni Weather History for the Previous 24 Hours

Scroll right to see more
 ConditionsComfort  
Time TempWeatherWind HumidityBarometerVisibility
5:30 pm
Thu, Dec 8
64 °FPassing clouds.No wind46%29.98 "Hg1 mi
4:30 pm68 °FScattered clouds.No wind40%29.98 "Hg1 mi
3:30 pm70 °FScattered clouds.5 mph38%29.98 "Hg1 mi
2:30 pm72 °FScattered clouds.5 mph36%29.98 "Hg1 mi
2:00 pm72 °FScattered clouds.7 mph36%30.01 "Hg1 mi
1:30 pm72 °FScattered clouds.7 mph36%30.01 "Hg1 mi
1:00 pm70 °FHaze.No wind38%30.04 "Hg1 mi
12:30 pm70 °FHaze.No wind38%30.04 "Hg1 mi
12:00 pm66 °FHaze.5 mph43%30.07 "Hg1 mi
11:30 am66 °FHaze.5 mph43%30.07 "Hg1 mi
11:00 am64 °FHaze.5 mph40%30.09 "Hg1 mi
10:30 am64 °FHaze.5 mph40%30.09 "Hg1 mi
10:00 am61 °FScattered clouds.No wind52%30.09 "Hg1 mi
9:30 am61 °FScattered clouds.No wind52%30.09 "Hg1 mi
9:00 am57 °FScattered clouds.5 mph51%30.09 "Hg1 mi
8:30 am57 °FScattered clouds.5 mph51%30.09 "Hg1 mi
8:00 am52 °FScattered clouds.5 mph62%30.07 "Hg1 mi
7:00 am52 °FScattered clouds.5 mph62%30.07 "Hg1 mi
6:30 am52 °FPassing clouds.5 mph62%30.07 "Hg1 mi
6:00 am52 °FHaze.No wind72%30.04 "Hg1 mi
5:30 am52 °FHaze.No wind72%30.04 "Hg1 mi
4:30 am52 °FHaze.No wind72%30.04 "Hg1 mi
4:00 am54 °FPassing clouds.No wind67%30.01 "Hg1 mi
3:30 am54 °FPassing clouds.No wind67%30.01 "Hg1 mi
2:30 am54 °FPassing clouds.No wind67%30.01 "Hg1 mi
1:30 am55 °FPassing clouds.No wind67%30.01 "Hg1 mi
1:00 am55 °FPassing clouds.No wind67%30.01 "Hg1 mi
12:30 am55 °FPassing clouds.No wind67%30.01 "Hg1 mi
11:30 pm
Wed, Dec 7
57 °FPassing clouds.No wind63%30.04 "Hg1 mi
11:00 pm59 °FHaze.No wind59%30.04 "Hg1 mi
10:30 pm59 °FHaze.No wind59%30.04 "Hg1 mi
9:30 pm59 °FHaze.No wind59%30.01 "Hg1 mi
9:00 pm59 °FHaze.No wind59%30.01 "Hg1 mi
8:30 pm59 °FHaze.No wind59%30.01 "Hg1 mi
8:00 pm61 °FHaze.No wind52%30.01 "Hg1 mi
7:30 pm61 °FHaze.No wind52%30.01 "Hg1 mi
7:00 pm63 °FHaze.No wind49%29.98 "Hg1 mi
6:30 pm63 °FHaze.No wind49%29.98 "Hg1 mi
6:00 pm64 °FHaze.No wind46%29.95 "Hg1 mi
Weather by CustomWeather, © 2016

See weather overviewHow to use our weather pages